Regional Weather Roundup
Issued by NWS Sioux Falls, SD

Home | Current Version | Previous Version | Text Only | Print | Product List | Glossary On
Versions: 1 2 3 4 5 6 7 8 9 10 11 12 13 14 15 16 17 18 19 20 21 22 23 24 25 26 27 28 29 30 31 32 33 34 35 36 37 38 39 40 41 42 43 44 45 46 47 48 49 50
000
ASUS43 KFSD 051110
RWRFSD

WEATHER ROUNDUP FOR SE SOUTH DAKOTA/SW MINNESOTA/NW IOWA
NATIONAL WEATHER SERVICE SIOUX FALLS SD
500 AM CST THU MAR 05 2015

NOTE: "FAIR" INDICATES FEW OR NO CLOUDS BELOW 12,000 FEET WITH NO
SIGNIFICANT WEATHER AND OR OBSTRUCTIONS TO VISIBILITY.


SDZ038>040-050-052>070-051200-
SOUTHEAST SOUTH DAKOTA

CITY           SKY/WX    TMP DP  RH WIND       PRES   REMARKS
CHAMBERLAIN    MOCLDY    -8 -13  82 E3        30.36F
HURON          MOCLDY    -6 -12  75 S7        30.41F WCI -20
MADISON        FAIR     -11 -13  92 SW5       30.39R WCI -23
MITCHELL       PTCLDY    -7 -12  79 S3        30.44F
SIOUX FALLS    CLEAR     -9 -14  78 CALM      30.43R
WINNER         FAIR       7  -4  60 SW8       30.31F WCI  -6
YANKTON        CLEAR     -2  -8  78 CALM      30.47S
$$

MNZ071-072-080-081-089-090-097-098-051200-
SOUTHWEST MINNESOTA

CITY           SKY/WX    TMP DP  RH WIND       PRES   REMARKS
FAIRMONT       CLEAR     -8 -13  77 W3        30.42S
JACKSON        CLEAR     -8 -15  71 W5        30.42R WCI -19
LUVERNE        PTCLDY    -8 -13  77 CALM      30.45R
MARSHALL       CLEAR     -8 -13  77 W7        30.43R WCI -22
MONTEVIDEO     PTCLDY    -9 -15  77 NW5       30.45R WCI -21
PIPESTONE      MOCLDY   -15 -18  84 W5        30.39R WCI -27
REDWOOD FALLS  CLEAR     -8 -14  74 W5        30.45R WCI -19
TRACY          CLEAR     -8 -14  73 SW7       30.42R WCI -22
WINDOM         CLEAR     -9 -15  77 CALM      30.42R
WORTHINGTON    CLEAR    -11 -20  64 W8        30.42R WCI -28
$$

IAZ001>003-012>014-020>022-031-032-NEZ013-014-SDZ071-051200-
NORTHWEST IOWA

CITY           SKY/WX    TMP DP  RH WIND       PRES   REMARKS
CHEROKEE       CLEAR     -9 -13  83 CALM      30.47R
DENISON        CLEAR     -4  -9  77 CALM      30.46R
ESTHERVILLE    FAIR      -7 -12  79 W6        30.43R WCI -20
LE MARS        CLEAR     -6  -9  84 CALM      30.49R
ORANGE CITY    CLEAR     -2  -9  71 CALM      30.44R
SHELDON        CLEAR     -9 -15  77 CALM      30.44R
SIOUX CITY     CLEAR     -1  -6  79 CALM      30.50R
SPENCER        FAIR      -9 -14  78 W6        30.45R WCI -22
STORM LAKE     CLEAR     -6 -13  71 NW7       30.44S WCI -20
$$

ABBREVIATIONS USED IN REMARKS
   TC - TEMPERATURE IN CELSIUS
  WCI - WIND CHILL INDEX
   HX - HEAT INDEX
  VSB - VISIBILITY



USA.gov is the U.S. government's official web portal to all federal, state and local government web resources and services.